Torna al catalogo

UNISAT 3

AttivoScienzaSSO
NORAD 28373·PAYLOAD·🇮🇹 Italy

Lanciato Jun 29, 2004 da Baikonur Cosmodrome

Loading…

Prossimi Passaggi (prossime 24 ore)

TLE

AggiornatoSource: Space-Track

Epoca: Sep 13, 2026, 22:49 UTC

1 28373U 04025H   26256.95100866  .00000291  00000-0  87044-4 0  9999
2 28373  98.6956 269.5049 0066356  84.1753 276.6999 14.49136002171903

Traccia UNISAT 3 in tempo reale con AllMySat

Download on the App Store